Location: Ammareddip?lem
(16.9681°N, 80.4999°E)
Time: 07:51:04
(UTC+00:00)

Envisat - Pass Details

Date: 23 October 2021
Orbit: 764 x 766 km, 98.2° (Epoch: 30 November)

Event Time Altitude Azimuth Distance (km) Brightness Sun altitude
Rises 00:01:45 0° 358° (N) 3,223 6.1 -8.2°
Reaches altitude 10° 00:04:12 10° 350° (N) 2,296 5.3 -7.6°
Maximum altitude 00:08:48 36° 285° (WNW) 1,194 3.5 -6.5°
Drops below altitude 10° 00:13:23 10° 219° (SW) 2,291 5.2 -5.4°
Sets 00:15:51 0° 211° (SSW) 3,216 6.0 -4.8°
